Regional Weather Roundup
Issued by NWS

Home | Current Version | Previous Version | Graphics & Text | Print | Product List | Glossary Off
Versions: 1 2 3 4 5 6 7 8 9 10 11 12 13 14 15 16 17 18 19 20 21 22 23 24 25 26 27 28 29 30 31 32 33 34 35 36 37 38 39 40 41 42 43 44 45 46 47 48 49 50

000
ASUS45 KBOU 090307
RWRCO

WEATHER ROUNDUP FOR COLORADO
NATIONAL WEATHER SERVICE DENVER/BOULDER CO
800 PM MST MON FEB 08 2016

NOTE: "FAIR" INDICATES FEW OR NO CLOUDS BELOW 12000 FEET WITH NO
SIGNIFICANT WEATHER AND/OR OBSTRUCTIONS TO VISIBILITY.

COZ001>005-013-030-031-090400-
...NORTHWEST COLORADO...

CITY           SKY/WX    TMP DP  RH WIND       PRES   REMARKS
CRAIG          CLOUDY     6   2  83 CALM      30.53S
HAYDEN         CLOUDY    21  12  68 E6        30.50F WCI  14
MEEKER         CLOUDY    17  12  80 CALM      30.51S
MOUNT WERNER   NOT AVBL
STEAMBOAT SPGS CLOUDY    19  14  83 CALM      30.52R
WALDEN         CLOUDY    21  14  73 SE6       30.48S WCI  14
$$

COZ006>008-011-090400-
...WEST CENTRAL VALLEYS...

CITY           SKY/WX    TMP DP  RH WIND       PRES   REMARKS
GRAND JUNCTION CLOUDY    23  20  88 CALM      30.52R
MONTROSE       CLOUDY    27  21  78 S6        30.53R WCI  20
EAGLE          CLEAR     25  18  74 CALM      30.53R
RIFLE          CLOUDY    24  15  68 E6        30.51S WCI  17
DELTA          CLOUDY    32  24  72 N5        30.53R WCI  27
NUCLA          CLOUDY    37  23  56 N5        30.51R
$$

COZ017>023-064>068-090400-
...SOUTHWEST COLORADO...

CITY           SKY/WX    TMP DP  RH WIND       PRES   REMARKS
DURANGO        CLOUDY    27  20  75 VRB3      30.42R
CORTEZ         CLOUDY    35  24  64 E3        30.43R
PAGOSA SPRINGS CLOUDY    28  21  74 SE5       30.43S WCI  23
TELLURIDE      CLOUDY    32  16  51 CALM      30.50F
WOLF CREEK PAS CLOUDY    27   1  33 N26G37    30.53F WCI  11
$$

COZ009-010-012-014-032>034-037-058>063-090400-
...CENTRAL COLORADO...

CITY           SKY/WX    TMP DP  RH WIND       PRES   REMARKS
ASPEN          CLOUDY    24  16  71 SW9       30.51R WCI  14
BUENA VISTA    CLOUDY    37  18  47 N10       30.42R
COPPER MTN     CLOUDY    23  16  74 W12G18    30.52R WCI  12
BERTHOUD PASS  HAZE      12   1  62 NW24      30.46F VSB<1/4 WCI  -8
COTTONWOOD PAS CLOUDY    36  10  35 NW12G21   30.44R
GUNNISON       CLOUDY     9   3  78 CALM      30.55R
KREMMLING      CLOUDY    14  10  85 CALM      30.52S
LEADVILLE      CLOUDY    23  14  68 N13       30.48R WCI  11
MONARCH PASS   CLOUDY    21  14  73 MISG      30.59S
SALIDA         NOT AVBL
SUNLIGHT       CLOUDY    27  19  74 CALM        N/A
WILKERSON PASS CLOUDY    27   5  39 NW15G26   30.47S WCI  15
$$

COZ069>075-090400-
...SAN LUIS VALLEY/SANGRE DE CRISTO MOUNTAINS...

CITY           SKY/WX    TMP DP  RH WIND       PRES   REMARKS
ALAMOSA        CLOUDY    27  21  78 W7        30.41S WCI  19
LA VETA PASS   NOT AVBL
SAGUACHE       CLOUDY    36  19  51 N12       30.44R
$$

COZ035-036-038>040-090400-
...NORTHERN COLORADO FRONT RANGE...

CITY           SKY/WX    TMP DP  RH WIND       PRES   REMARKS
DENVER INTL AP CLOUDY    34  23  64 SE10      30.33S WCI  26
DMNS CITY PARK   N/A     39  22  50 SE16      30.33S
AURORA         MOCLDY    34  24  68 SE10      30.34S WCI  26
FRONT RANGE AP MOCLDY    30  23  74 CALM      30.34S
ERIE MUNI ARPT CLOUDY    30  25  80 CALM      30.33R
BOULDER MUN AP CLOUDY    34  25  69 N5        30.31F WCI  30
CENTENNIAL     CLOUDY    34  23  64 S10       30.33F WCI  26
BROOMFIELD     MOCLDY    37  25  60 S5        30.32F
FORT COLLINS   CLOUDY    36  23  60 S3        30.33S
LONGMONT       CLOUDY    29  22  74 CALM      30.35R
$$

COZ041-046-047-076>085-087-088-090400-
...PIKES PEAK/PALMER DIVIDE AND SOUTHERN FOOTHILLS...

CITY           SKY/WX    TMP DP  RH WIND       PRES   REMARKS
COLO. SPRINGS  CLOUDY    26  18  71 N6        30.39R WCI  19
A. F. ACADEMY  CLOUDY    24  18  78 N6        30.37R WCI  16
SCHRIEVER AFB  NOT AVBL
ELLICOTT       NOT AVBL
FALCON         CLOUDY    26  19  76 W8        30.38S WCI  17
FORT CARSON    CLOUDY    28  21  75 NW9       30.37R WCI  19
LIMON          CLOUDY    29  22  75 W9        30.33S WCI  20
MONUMENT HILL  CLOUDY    23  18  80 SW6       30.37S WCI  16
TRINIDAD       CLOUDY    29  19  66 SW9       30.37F WCI  20
$$

COZ042>045-048>051-090-091-090400-
...NORTHEAST COLORADO...

CITY           SKY/WX    TMP DP  RH WIND       PRES   REMARKS
GREELEY ARPT   CLOUDY    28  21  74 NE7       30.33S WCI  21
AKRON          CLOUDY    37  28  70 NW23      30.30R
BURLINGTON     CLOUDY    28  22  78 NW9       30.27F WCI  19
WRAY           CLEAR     36  29  76 NW9       30.28R
STERLING       CLOUDY    36  30  80 NW12      30.30S
HOLYOKE        CLEAR     37  30  75 NW9       30.26F
FORT MORGAN    CLOUDY    38  27  62 NW16      30.32S
$$

COZ086-089-092>099-090400-
...SOUTHEAST COLORADO...

CITY           SKY/WX    TMP DP  RH WIND       PRES   REMARKS
PUEBLO         CLOUDY    32  23  69 N3        30.37R
LA JUNTA       CLOUDY    38  23  55 W10       30.36R
LAMAR          CLOUDY    32  24  72 W10       30.32S WCI  24
SPRINGFIELD      N/A     30  21  69 W10       30.34S WCI  21
$$



USA.gov is the U.S. government's official web portal to all federal, state and local government web resources and services.